TimeCDT,TemperatureF,Dew PointF,Humidity,Sea Level PressureIn,VisibilityMPH,Wind Direction,Wind SpeedMPH,Gust SpeedMPH,PrecipitationIn,Events,Conditions,WindDirDegrees,DateUTC
12:15 AM,72.5,56.3,57,29.78,10.0,SW,13.8,-,N/A,,Clear,230,2013-05-15 05:15:00
12:55 AM,70.9,55.4,58,29.79,10.0,SW,13.8,-,N/A,,Clear,230,2013-05-15 05:55:00
1:15 AM,70.7,55.0,58,29.79,10.0,SW,11.5,-,N/A,,Clear,230,2013-05-15 06:15:00
1:35 AM,71.6,53.6,53,29.79,10.0,WSW,16.1,-,N/A,,Clear,240,2013-05-15 06:35:00
1:55 AM,73.4,52.0,47,29.79,10.0,WSW,16.1,-,N/A,,Clear,240,2013-05-15 06:55:00
2:15 AM,73.6,51.1,45,29.79,10.0,WSW,17.3,-,N/A,,Clear,240,2013-05-15 07:15:00
2:35 AM,74.1,50.5,43,29.79,10.0,WSW,18.4,26.5,N/A,,Clear,240,2013-05-15 07:35:00
2:55 AM,73.4,50.5,45,29.80,10.0,WSW,18.4,-,N/A,,Clear,240,2013-05-15 07:55:00
3:15 AM,72.7,51.1,47,29.80,10.0,WSW,17.3,25.3,N/A,,Clear,240,2013-05-15 08:15:00
3:35 AM,72.9,51.1,46,29.81,10.0,WSW,18.4,24.2,N/A,,Clear,240,2013-05-15 08:35:00
3:55 AM,72.5,51.1,47,29.81,10.0,WSW,18.4,25.3,N/A,,Clear,240,2013-05-15 08:55:00
4:15 AM,72.5,51.1,47,29.81,10.0,WSW,17.3,25.3,N/A,,Clear,240,2013-05-15 09:15:00
4:35 AM,72.5,51.1,47,29.81,10.0,WSW,18.4,25.3,N/A,,Clear,240,2013-05-15 09:35:00
4:55 AM,72.7,51.1,47,29.81,10.0,WSW,17.3,26.5,N/A,,Clear,240,2013-05-15 09:55:00
5:35 AM,72.5,50.9,47,29.83,10.0,WSW,18.4,25.3,N/A,,Clear,250,2013-05-15 10:35:00
5:55 AM,72.0,51.1,48,29.83,10.0,WSW,16.1,24.2,N/A,,Clear,250,2013-05-15 10:55:00
6:15 AM,72.0,51.4,48,29.84,10.0,WSW,17.3,25.3,N/A,,Clear,250,2013-05-15 11:15:00
6:35 AM,71.8,52.0,50,29.85,10.0,WSW,16.1,-,N/A,Thunderstorm,Clear,250,2013-05-15 11:35:00
6:55 AM,72.0,52.5,50,29.86,10.0,WSW,17.3,24.2,N/A,,Clear,250,2013-05-15 11:55:00
7:15 AM,72.9,52.5,49,29.86,10.0,WSW,17.3,25.3,N/A,,Clear,250,2013-05-15 12:15:00
7:35 AM,73.9,52.7,47,29.87,10.0,WSW,17.3,21.9,N/A,,Clear,250,2013-05-15 12:35:00
8:15 AM,75.7,53.2,45,29.87,10.0,West,19.6,28.8,N/A,,Clear,260,2013-05-15 13:15:00
8:35 AM,76.5,53.6,45,29.88,10.0,WSW,19.6,28.8,N/A,,Clear,250,2013-05-15 13:35:00
8:55 AM,77.4,53.6,44,29.87,10.0,WSW,19.6,28.8,N/A,,Clear,250,2013-05-15 13:55:00
9:15 AM,78.6,54.1,43,29.87,10.0,West,21.9,29.9,N/A,,Clear,270,2013-05-15 14:15:00
9:35 AM,79.7,54.5,42,29.88,10.0,West,20.7,27.6,N/A,,Clear,270,2013-05-15 14:35:00
9:55 AM,81.0,54.5,40,29.88,10.0,West,18.4,28.8,N/A,,Clear,260,2013-05-15 14:55:00
10:15 AM,81.9,54.5,39,29.88,10.0,WSW,18.4,23.0,N/A,,Clear,250,2013-05-15 15:15:00
10:55 AM,83.3,53.8,36,29.87,10.0,West,16.1,23.0,N/A,,Clear,260,2013-05-15 15:55:00
11:15 AM,84.2,53.8,35,29.87,10.0,WSW,11.5,19.6,N/A,,Clear,250,2013-05-15 16:15:00
11:35 AM,84.7,53.2,34,29.87,10.0,WSW,16.1,21.9,N/A,,Clear,250,2013-05-15 16:35:00
11:55 AM,85.8,53.4,33,29.86,10.0,WSW,15.0,21.9,N/A,,Clear,250,2013-05-15 16:55:00
12:15 PM,86.2,53.2,32,29.87,10.0,West,13.8,23.0,N/A,,Clear,270,2013-05-15 17:15:00
12:35 PM,86.5,53.4,32,29.86,10.0,West,18.4,24.2,N/A,,Clear,270,2013-05-15 17:35:00
12:55 PM,87.1,53.1,31,29.86,10.0,West,11.5,18.4,N/A,,Clear,270,2013-05-15 17:55:00
1:15 PM,87.1,54.7,33,29.86,10.0,West,9.2,-,N/A,,Clear,280,2013-05-15 18:15:00
1:35 PM,87.8,54.0,31,29.86,10.0,West,11.5,16.1,N/A,,Clear,260,2013-05-15 18:35:00
1:55 PM,88.3,54.5,31,29.85,10.0,West,12.7,-,N/A,,Clear,280,2013-05-15 18:55:00
2:15 PM,90.0,54.3,30,29.84,10.0,West,13.8,19.6,N/A,,Clear,260,2013-05-15 19:15:00
2:35 PM,87.6,54.7,32,29.83,10.0,North,5.8,-,N/A,,Clear,350,2013-05-15 19:35:00
2:55 PM,88.2,54.3,31,29.84,10.0,NW,8.1,-,N/A,,Clear,310,2013-05-15 19:55:00
3:15 PM,88.2,54.0,31,29.83,10.0,West,10.4,-,N/A,,Clear,280,2013-05-15 20:15:00
3:35 PM,88.2,54.3,31,29.83,10.0,West,10.4,16.1,N/A,,Clear,260,2013-05-15 20:35:00
3:55 PM,88.7,54.7,31,29.82,10.0,West,10.4,-,N/A,,Clear,260,2013-05-15 20:55:00
4:15 PM,89.6,55.4,31,29.82,10.0,WSW,9.2,-,N/A,,Clear,250,2013-05-15 21:15:00
4:35 PM,88.2,55.2,32,29.81,10.0,West,9.2,12.7,N/A,,Clear,260,2013-05-15 21:35:00
4:55 PM,88.3,54.1,31,29.81,10.0,WSW,11.5,-,N/A,,Clear,240,2013-05-15 21:55:00
5:15 PM,87.4,54.7,33,29.82,10.0,WSW,13.8,-,N/A,,Clear,240,2013-05-15 22:15:00
5:35 PM,87.1,55.2,34,29.82,10.0,West,13.8,-,N/A,,Clear,270,2013-05-15 22:35:00
6:15 PM,87.1,55.2,34,29.81,10.0,West,10.4,-,N/A,,Clear,270,2013-05-15 23:15:00
6:35 PM,86.9,55.0,34,29.81,10.0,West,9.2,-,N/A,,Clear,260,2013-05-15 23:35:00
7:15 PM,83.5,58.3,42,29.81,10.0,WNW,6.9,-,N/A,,Clear,300,2013-05-16 00:15:00
7:35 PM,81.7,59.0,46,29.82,10.0,NW,5.8,-,N/A,,Clear,310,2013-05-16 00:35:00
8:16 PM,80.6,53.6,39,29.83,10.0,NNW,6.9,-,N/A,,Scattered Clouds,330,2013-05-16 01:16:00
8:35 PM,79.3,52.3,39,29.83,10.0,NNW,4.6,-,N/A,,Scattered Clouds,330,2013-05-16 01:35:00
8:55 PM,77.9,52.7,41,29.84,10.0,NNW,4.6,-,N/A,,Clear,330,2013-05-16 01:55:00
9:15 PM,75.7,55.4,49,29.84,10.0,Calm,Calm,-,N/A,,Clear,0,2013-05-16 02:15:00
9:35 PM,74.5,55.6,52,29.84,10.0,NW,3.5,-,N/A,,Clear,310,2013-05-16 02:35:00
9:55 PM,74.1,57.4,56,29.85,7.0,South,6.9,-,N/A,,Clear,170,2013-05-16 02:55:00
10:15 PM,75.6,55.2,49,29.86,10.0,SSW,4.6,-,N/A,,Scattered Clouds,210,2013-05-16 03:15:00
10:55 PM,75.0,55.6,51,29.86,10.0,West,3.5,-,N/A,,Mostly Cloudy,260,2013-05-16 03:55:00
11:15 PM,74.5,56.5,53,29.85,10.0,Calm,Calm,-,N/A,,Mostly Cloudy,0,2013-05-16 04:15:00
11:35 PM,72.7,59.0,62,29.85,10.0,West,3.5,-,N/A,,Scattered Clouds,270,2013-05-16 04:35:00
11:55 PM,73.8,57.9,58,29.83,10.0,SW,5.8,-,N/A,Rain-Thunderstorm,Light Thunderstorms and Rain,220,2013-05-16 04:55:00